Flag for Germany Weather past 2 weeks in Crailsheim, Baden-Württemberg, Germany

Now
52 °F

Drizzle. Overcast.


Feels Like: 43 °F
Forecast: 35 / 39 °F
Wind: 43 mph from West

Location: Niederstetten

Current Time: Mar 31, 2015 at 9:35:21 AM

Latest Report: Mar 31, 2015 at 8:49 AM


Visibility: 4 mi

Pressure: 29.45 "Hg

Humidity: 77%

Dew point: 45 °F

Location of CrailsheimLocation

Historic Weather in Crailsheim — Graph

°F

Crailsheim temperature yesterday

Maximum temperature yesterday: 48 °F (at 12:20 AM)
Minimum temperature yesterday: 37 °F (at 11:20 AM)
Average temperature yesterday: 42 °F

Past Weeks' High & Low Weather Summary

 TemperatureHumidityPressure
High63 °F (Mar 17, 3:20 PM)100% (Mar 24, 4:20 AM)30.27 "Hg (Mar 24, 4:20 AM)
Low30 °F (Mar 23, 1:20 AM)30% (Mar 25, 2:20 PM)29.42 "Hg (Mar 31, 8:20 AM)
Average44 °F71%29.97 "Hg
* Reported Mar 16 7:20 AM — Mar 31 8:20 AM, Crailsheim, Weather by CustomWeather, © 2015

Note: Actual official high and low records may vary slightly from our data, if they occured in-between our weather recording intervals... More about our weather records

Advertising

Crailsheim weather history for previous 24 hours

 ConditionsComfort  
Time TempWeatherWind HumidityBarometerVisibility
8:20 AM
Tue, Mar 31
50 °FOvercast.47 mph82%29.42 "HgN/A
8:01 AM50 °FDrizzle. Overcast.46 mph88%29.45 "HgN/A
7:20 AM50 °FOvercast.40 mph88%29.45 "HgN/A
6:48 AM48 °FLow clouds.38 mph94%29.47 "HgN/A
6:20 AM46 °FDrizzle. Fog.38 mph93%29.47 "Hg2 mi
5:52 AM45 °FDrizzle. Fog.28 mph100%29.50 "Hg2 mi
5:20 AM43 °FDrizzle. Fog.24 mph93%29.53 "Hg3 mi
4:50 AM41 °FDrizzle. Fog.22 mph93%29.56 "Hg3 mi
4:20 AM41 °FDrizzle. Overcast.20 mph87%29.59 "Hg3 mi
3:20 AM39 °FRain showers. Mostly cloudy.18 mph87%29.65 "HgN/A
2:20 AM39 °FRain. Overcast.17 mph81%29.77 "Hg6 mi
1:20 AM37 °FOvercast.8 mph81%29.80 "HgN/A
12:20 AM36 °FPartly cloudy.6 mph75%29.83 "HgN/A
11:20 PM
Mon, Mar 30
39 °FPassing clouds.9 mph61%29.86 "HgN/A
10:20 PM39 °FPassing clouds.8 mph61%29.89 "HgN/A
9:20 PM41 °FPassing clouds.9 mph57%29.89 "HgN/A
8:20 PM41 °FPassing clouds.9 mph61%29.86 "HgN/A
7:20 PM41 °FPassing clouds.15 mph61%29.83 "HgN/A
6:20 PM41 °FScattered showers. Partly sunny.21 mph70%29.80 "HgN/A
5:20 PM45 °FScattered showers. Scattered clouds.20 mph57%29.74 "HgN/A
5:00 PM45 °FScattered showers. Scattered clouds.16 mph61%29.74 "HgN/A
4:20 PM43 °FScattered showers. Scattered clouds.17 mph76%29.74 "HgN/A
3:20 PM43 °FSprinkles. Broken clouds.13 mph71%29.71 "HgN/A
2:20 PM45 °FScattered showers. Scattered clouds.15 mph61%29.68 "HgN/A
1:20 PM43 °FPassing clouds.17 mph71%29.65 "HgN/A
12:20 PM43 °FScattered showers. Broken clouds.14 mph76%29.62 "HgN/A
11:20 AM37 °FSprinkles. Broken clouds.12 mph87%29.62 "HgN/A
10:51 AM41 °FRain showers. Partly sunny.16 mph70%29.59 "Hg4 mi
10:20 AM43 °FSprinkles. Broken clouds.15 mph76%29.59 "HgN/A
9:20 AM41 °FPartly sunny.14 mph87%29.56 "HgN/A
Weather by CustomWeather, © 2015

See weather overviewHow to use our weather pages